Nuiqsut, AK

1:29 AM AKST on November 22, 2017 (GMT -0900)
Nuiqsut

Weather History for PAQT - September, 2013

Change the Weather History Date:

Friday, September 27, 2013

  Actual Average (PAKU) Record (PAKU)
Temperature  
Mean Temperature 29 °F -  
Max Temperature 32 °F 30 °F 45 °F (1984)
Min Temperature 26 °F 24 °F 14 °F (1983)
Degree Days  
Heating Degree Days 36    
Moisture  
Dew Point 30 °F    
Average Humidity 99    
Maximum Humidity 100    
Minimum Humidity 93    
Precipitation  
Precipitation 0.01 in - - ()
Sea Level Pressure  
Sea Level Pressure 29.55 in    
Wind  
Wind Speed 10 mph (ENE)    
Max Wind Speed 15 mph    
Max Gust Speed 20 mph    
Visibility 3 miles    
Events Fog , Rain , Snow    
Averages and records for this station are not official NWS values.
T = Trace of Precipitation, MM = Missing Value Source: NWS Daily Summary

Daily Weather History Graph

Daily Weather History Graph

Search for Another Location

Airport or City:

Trip Planner

Search our weather history database for the weather conditions in past years. The results will help you decide how hot, cold, wet, or windy it might be!

Date:

Astronomy

Sep. 27, 2013 Rise Set
Actual Time 8:05 AM AKDT 7:41 PM AKDT
Civil Twilight 7:04 AM AKDT 8:42 PM AKDT
Nautical Twilight 5:48 AM AKDT 9:58 PM AKDT
Astronomical Twilight 4:12 AM AKDT 11:31 PM AKDT
Moon 10:46 PM AKDT (9/27) 6:50 PM AKDT (9/27)
Length of Visible Light 13h 38m
Length of Day
11h 35m
Last Quarter, 44% of the Moon is Illuminated
Sep 27
Last Quarter
Oct 4
New
Oct 11
First Quarter
Oct 18
Full
Oct 26
Last Quarter

Hourly Weather History & Observations

Time (AKDT) Temp. Windchill Dew Point Humidity Pressure Visibility Wind Dir Wind Speed Gust Speed Precip Events Conditions
12:30 AM 26.6 °F 17.5 °F 26.6 °F 100% 29.62 in 10.0 mi NE 9.2 mph - N/A   Overcast
12:53 AM 26.1 °F 18.4 °F 26.1 °F 100% 29.62 in 10.0 mi NNE 6.9 mph - N/A   Overcast
1:21 AM 26.6 °F 17.5 °F 26.6 °F 100% 29.61 in 10.0 mi NE 9.2 mph - N/A   Overcast
1:53 AM 27.0 °F 16.1 °F 26.1 °F 96% 29.60 in 10.0 mi NE 12.7 mph - N/A   Overcast
2:34 AM 28.4 °F 17.0 °F 26.6 °F 93% 29.59 in 10.0 mi NE 15.0 mph - N/A   Overcast
2:53 AM 28.0 °F 17.0 °F 27.0 °F 96% 29.58 in 10.0 mi NE 13.8 mph - 0.00 in   Overcast
3:53 AM 28.9 °F 18.2 °F 28.0 °F 96% 29.57 in 8.0 mi NE 13.8 mph - 0.00 in   Overcast
4:25 AM 28.4 °F 18.0 °F 28.4 °F 100% 29.57 in 10.0 mi NE 12.7 mph - 0.00 in   Overcast
4:53 AM 28.9 °F 17.7 °F 28.0 °F 96% 29.57 in 4.0 mi NE 15.0 mph - 0.00 in Snow Light Snow
5:04 AM 28.4 °F 18.0 °F 28.4 °F 100% 29.56 in 5.0 mi NE 12.7 mph - 0.00 in   Overcast
5:26 AM 30.2 °F 19.8 °F 28.4 °F 93% 29.56 in 1.8 mi NE 13.8 mph - 0.00 in Snow Light Snow
5:51 AM 30.2 °F 20.8 °F 30.2 °F 100% 29.55 in 2.0 mi NE 11.5 mph - 0.00 in Snow Light Snow
5:53 AM 30.0 °F 19.5 °F 30.0 °F 100% 29.55 in 2.0 mi NE 13.8 mph - 0.00 in Snow Light Snow
6:04 AM 30.2 °F 20.2 °F 30.2 °F 100% 29.55 in 1.5 mi NE 12.7 mph 19.6 mph 0.00 in Snow Light Snow
6:35 AM 30.2 °F 21.3 °F 30.2 °F 100% 29.54 in 2.0 mi ENE 10.4 mph - 0.00 in Snow Light Snow
6:51 AM 30.2 °F 20.8 °F 30.2 °F 100% 29.54 in 5.0 mi ENE 11.5 mph - 0.00 in Snow Light Snow
6:53 AM 30.0 °F 19.1 °F 30.0 °F 100% 29.54 in 7.0 mi ENE 15.0 mph - 0.00 in   Overcast
7:53 AM 30.9 °F 21.2 °F 30.0 °F 96% 29.53 in 7.0 mi ENE 12.7 mph - 0.00 in   Overcast
9:02 AM 30.2 °F 19.8 °F 30.2 °F 100% 29.53 in 1.0 mi East 13.8 mph - 0.00 in Snow Light Snow
9:40 AM 30.2 °F 23.4 °F 30.2 °F 100% 29.52 in 0.8 mi East 6.9 mph - 0.00 in Snow Light Snow
9:51 AM 30.2 °F 21.9 °F 30.2 °F 100% 29.52 in 1.0 mi East 9.2 mph - 0.00 in Snow Light Snow
9:53 AM 30.9 °F 21.7 °F 30.9 °F 100% 29.52 in 1.2 mi East 11.5 mph - 0.00 in Snow Light Snow
9:58 AM 30.2 °F 20.2 °F 30.2 °F 100% 29.52 in 3.0 mi East 12.7 mph - 0.00 in Snow Light Snow
10:03 AM 30.2 °F 19.8 °F 30.2 °F 100% 29.52 in 1.5 mi East 13.8 mph - 0.00 in Snow Light Snow
10:15 AM 30.2 °F 21.9 °F 30.2 °F 100% 29.52 in 1.2 mi East 9.2 mph - 0.00 in Snow Light Snow
10:39 AM 30.2 °F 21.9 °F 30.2 °F 100% 29.52 in 1.0 mi East 9.2 mph - 0.00 in Snow Light Snow
10:53 AM 30.9 °F 22.8 °F 30.9 °F 100% 29.52 in 1.5 mi East 9.2 mph - 0.00 in Snow Light Snow
10:57 AM 30.2 °F 20.2 °F 30.2 °F 100% 29.51 in 3.0 mi East 12.7 mph - 0.00 in Snow Light Snow
11:05 AM 30.2 °F 20.8 °F 30.2 °F 100% 29.51 in 2.5 mi ENE 11.5 mph - 0.00 in Snow Light Snow
11:13 AM 30.2 °F 21.3 °F 30.2 °F 100% 29.52 in 1.8 mi ENE 10.4 mph - 0.00 in Snow Light Snow
11:22 AM 30.2 °F 20.8 °F 30.2 °F 100% 29.52 in 3.0 mi East 11.5 mph - 0.00 in   Overcast
11:35 AM 30.2 °F 21.3 °F 30.2 °F 100% 29.52 in 3.0 mi East 10.4 mph - 0.00 in   Overcast
11:50 AM 30.2 °F 21.3 °F 30.2 °F 100% 29.53 in 4.0 mi East 10.4 mph - 0.00 in   Overcast
11:53 AM 30.9 °F 22.8 °F 30.9 °F 100% 29.53 in 3.0 mi East 9.2 mph - 0.00 in   Overcast
12:01 PM 30.2 °F 21.9 °F 30.2 °F 100% 29.53 in 2.0 mi East 9.2 mph - 0.00 in   Overcast
12:11 PM 30.2 °F 21.3 °F 30.2 °F 100% 29.53 in 9.0 mi East 10.4 mph - 0.00 in   Overcast
12:23 PM 30.2 °F 20.8 °F 30.2 °F 100% 29.53 in 6.0 mi East 11.5 mph - 0.00 in   Overcast
12:33 PM 30.2 °F 20.8 °F 30.2 °F 100% 29.53 in 1.8 mi East 11.5 mph - 0.00 in Snow Light Snow
12:51 PM 30.2 °F 22.6 °F 30.2 °F 100% 29.53 in 1.2 mi East 8.1 mph - 0.00 in Snow Light Snow
12:53 PM 30.9 °F 23.5 °F 30.9 °F 100% 29.53 in 1.0 mi East 8.1 mph - 0.00 in Snow Light Snow
1:03 PM 30.2 °F 24.3 °F 30.2 °F 100% 29.53 in 1.0 mi ENE 5.8 mph - 0.00 in Snow Light Snow
1:48 PM 30.2 °F 20.8 °F 30.2 °F 100% 29.54 in 0.8 mi ENE 11.5 mph - 0.00 in Snow Light Snow
1:51 PM 30.2 °F 21.3 °F 30.2 °F 100% 29.54 in 1.0 mi East 10.4 mph - 0.00 in Snow Light Snow
1:53 PM 30.9 °F 22.8 °F 30.9 °F 100% 29.54 in 1.2 mi East 9.2 mph - 0.00 in Snow Light Snow
1:59 PM 30.2 °F 21.9 °F 30.2 °F 100% 29.54 in 3.0 mi East 9.2 mph - 0.00 in   Overcast
2:03 PM 30.2 °F 21.9 °F 30.2 °F 100% 29.54 in 1.8 mi East 9.2 mph - 0.00 in Snow Light Snow
2:22 PM 30.2 °F 21.3 °F 30.2 °F 100% 29.53 in 3.0 mi ENE 10.4 mph - 0.00 in Snow Light Snow
2:31 PM 32.0 °F 22.5 °F 30.2 °F 93% 29.53 in 2.5 mi ENE 12.7 mph - 0.00 in Snow Light Snow
2:34 PM 30.2 °F 20.2 °F 30.2 °F 100% 29.53 in 1.5 mi ENE 12.7 mph - 0.00 in Snow Light Snow
2:43 PM 30.2 °F 20.8 °F 30.2 °F 100% 29.53 in 1.0 mi East 11.5 mph - 0.00 in Snow Light Snow
2:53 PM 30.9 °F 22.2 °F 30.9 °F 100% 29.54 in 1.2 mi East 10.4 mph - 0.01 in Snow Light Snow
3:01 PM 30.2 °F 21.9 °F 30.2 °F 100% 29.54 in 0.8 mi East 9.2 mph - 0.00 in Snow Light Snow
3:21 PM 30.2 °F 21.9 °F 30.2 °F 100% 29.54 in 0.8 mi East 9.2 mph - 0.00 in Snow Light Snow
3:44 PM 30.2 °F 24.3 °F 30.2 °F 100% 29.54 in 1.0 mi East 5.8 mph - 0.00 in Snow Light Snow
3:51 PM 30.2 °F 22.6 °F 30.2 °F 100% 29.54 in 1.0 mi ENE 8.1 mph - 0.00 in Snow Light Snow
3:53 PM 30.9 °F 22.8 °F 30.9 °F 100% 29.55 in 0.8 mi ENE 9.2 mph - 0.00 in Snow Light Snow
3:59 PM 30.2 °F 21.3 °F 30.2 °F 100% 29.54 in 1.0 mi East 10.4 mph - 0.00 in Snow Light Snow
4:06 PM 30.2 °F 21.3 °F 30.2 °F 100% 29.54 in 1.5 mi East 10.4 mph - 0.00 in Snow Light Snow
4:14 PM 30.2 °F 22.6 °F 30.2 °F 100% 29.54 in 2.0 mi East 8.1 mph - 0.00 in Snow Light Snow
4:22 PM 30.2 °F 22.6 °F 30.2 °F 100% 29.54 in 1.8 mi East 8.1 mph - 0.00 in Snow Light Snow
4:26 PM 30.2 °F 22.6 °F 30.2 °F 100% 29.55 in 3.0 mi East 8.1 mph - 0.00 in Snow Light Snow
4:48 PM 30.2 °F 23.4 °F 30.2 °F 100% 29.54 in 10.0 mi East 6.9 mph - 0.00 in   Overcast
4:53 PM 30.9 °F 25.2 °F 30.0 °F 96% 29.55 in 10.0 mi ESE 5.8 mph - 0.00 in   Overcast
5:09 PM 30.2 °F - 30.2 °F 100% 29.54 in 10.0 mi Calm Calm - N/A   Overcast
5:53 PM 30.0 °F 24.1 °F 28.9 °F 96% 29.56 in 3.0 mi WSW 5.8 mph - 0.00 in Snow Light Snow
5:56 PM 30.2 °F 23.4 °F 28.4 °F 93% 29.55 in 1.5 mi SW 6.9 mph - 0.00 in Snow Light Snow
6:08 PM 28.4 °F 22.2 °F 28.4 °F 100% 29.55 in 1.2 mi WSW 5.8 mph - 0.00 in Snow Light Snow
6:35 PM 30.2 °F 26.7 °F 30.2 °F 100% 29.55 in 2.0 mi WNW 3.5 mph - 0.00 in Snow Light Snow
6:45 PM 30.2 °F 26.7 °F 30.2 °F 100% 29.55 in 1.2 mi WNW 3.5 mph - 0.00 in Snow Light Snow
6:51 PM 30.2 °F - 30.2 °F 100% 29.55 in 1.0 mi Calm Calm - 0.00 in Snow Light Snow
6:53 PM 30.0 °F - 30.0 °F 100% 29.56 in 1.0 mi Calm Calm - 0.00 in Snow Light Snow
7:00 PM 30.2 °F - 30.2 °F 100% 29.55 in 1.8 mi Calm Calm - 0.00 in Snow Light Snow
7:30 PM 30.2 °F 26.7 °F 30.2 °F 100% 29.55 in 1.5 mi NE 3.5 mph - 0.00 in   Overcast
7:51 PM 30.2 °F 23.4 °F 30.2 °F 100% 29.55 in 1.0 mi NE 6.9 mph - 0.00 in Rain Light Freezing Rain
7:53 PM 30.9 °F 25.2 °F 30.9 °F 100% 29.56 in 1.2 mi NE 5.8 mph - 0.00 in Rain Light Freezing Rain
8:01 PM 30.2 °F 24.3 °F 30.2 °F 100% 29.56 in 1.8 mi NE 5.8 mph - 0.00 in Rain Light Freezing Rain
8:12 PM 30.2 °F 23.4 °F 30.2 °F 100% 29.56 in 3.0 mi NNE 6.9 mph - 0.00 in Rain Light Freezing Rain
8:27 PM 30.2 °F 23.4 °F 30.2 °F 100% 29.56 in 1.8 mi NNE 6.9 mph - 0.00 in   Overcast
8:40 PM 30.2 °F 23.4 °F 30.2 °F 100% 29.56 in 1.0 mi NNE 6.9 mph - 0.00 in   Overcast
8:51 PM 30.2 °F 23.4 °F 30.2 °F 100% 29.55 in 0.8 mi NNE 6.9 mph - 0.00 in   Overcast
8:53 PM 30.0 °F 22.4 °F 30.0 °F 100% 29.56 in 0.8 mi NNE 8.1 mph - 0.00 in   Overcast
9:07 PM 30.2 °F 24.3 °F 30.2 °F 100% 29.56 in 1.0 mi NNE 5.8 mph - N/A   Overcast
9:42 PM 30.2 °F 23.4 °F 30.2 °F 100% 29.56 in 0.5 mi NE 6.9 mph - N/A Fog Light Freezing Fog
9:53 PM 30.0 °F 24.1 °F 30.0 °F 100% 29.57 in 0.5 mi NNE 5.8 mph - N/A Fog Light Freezing Fog